| State | Missouri | Latest | Good (63 cfs) | |
| River | Bourbeuse River | Rating | Observed | Estimated |
| Updated | 2026-05-10 17:00 (42 minutes ago) | Flood - The river is flooding. Obstacles can be treacherous or deadly. The river should be avoided at this stage for casual trips and definitely for the inexperienced. Trips should be attempted only with protective gear and equipment.Flood | (none) | 533 |
| Discharge | 63 cfs (median: 59 cfs) | High - The river is high and potentially dangerous, especially for the young and / or inexperienced. Normal stream obstacles are sometimes difficult to navigate. Extended distances can be attempted, but canoe travel may not be advisable.High | (none) | 131 |
| Height | 4.51 feet | Good - Conditions are ideal for a canoe or kayak. Boats typically will drag on fewer than one-quarter of riffles, if at all, and portages are unnecessary or rare. Normal float lengths can be attempted without a problem.Good | (none) | 48 |
| Trend | Falling (falling over 24 hours) | Low - River is low but can still be floated. Some riffles are okay but most come with significant dragging and might need a portage. Float lengths should be reduced to accommodate low flow, dragging, and portages.Low | (none) | 17 |
| USGS | USGS Site ( Duck Duck Go Maps) | Poor - River is too low to float comfortably. Most or all riffles will drag or must be portaged and some obstacles (such as slick shelf rock) cause undue problems. Avoid the river at this stage for casual paddling trips.Poor | (none) | 2 |
| Date | Start | End | Distance | Condition | Discharge | Height | Fishing | Details |
|---|
A total of 0 rows are displayed.
BLG - Bluegill
CCF - Channel Catfish
CP - Chain Pickerel
FWD - Freshwater Drum
GSF - Green Sunfish
KSB - Kentucky Spotted Bass
LMB - Largemouth Bass
LSF - Longear Sunfish
RB - Rock Bass / Goggle Eye
RSF - Redear Sunfish
RT - Rainbow Trout
SMB - Smallmouth Bass
WB - White Bass
WF - Whitefish
WL - WalleyeThe classic River Trips application is still available for use. It is updated with the new system using a data retrofit. It is no longer maintained. The original River Trips application is no longer updated (as of 1 Dec 2016) but can be checked for errors or for the condition of the data before it was converted to the new system.
| Observation | Height | Discharge | Maximum Discharge | Minimum Discharge | Mean Discharge | P05 | P10 | P20 | P25 | P50 (Median) | P75 | P80 | P90 | P95 |
|---|---|---|---|---|---|---|---|---|---|---|---|---|---|---|
| 2026-05-10 17:00 | 4.51 | 63 | 4520 (1981) | 6 (1986) | 202 | 8 | 9 | 19 | 27 | 59 | 110 | 163 | 272 | 963 |
| 2026-05-10 16:00 | 4.52 | 64 | 4520 (1981) | 6 (1986) | 202 | 8 | 9 | 19 | 27 | 59 | 110 | 163 | 272 | 963 |
| 2026-05-10 15:00 | 4.52 | 64 | 4520 (1981) | 6 (1986) | 202 | 8 | 9 | 19 | 27 | 59 | 110 | 163 | 272 | 963 |
| 2026-05-10 14:00 | 4.54 | 67 | 4520 (1981) | 6 (1986) | 202 | 8 | 9 | 19 | 27 | 59 | 110 | 163 | 272 | 963 |
| 2026-05-10 13:00 | 4.56 | 69 | 4520 (1981) | 6 (1986) | 202 | 8 | 9 | 19 | 27 | 59 | 110 | 163 | 272 | 963 |
| 2026-05-10 12:00 | 4.56 | 69 | 4520 (1981) | 6 (1986) | 202 | 8 | 9 | 19 | 27 | 59 | 110 | 163 | 272 | 963 |
| 2026-05-10 11:00 | 4.58 | 72 | 4520 (1981) | 6 (1986) | 202 | 8 | 9 | 19 | 27 | 59 | 110 | 163 | 272 | 963 |
| 2026-05-10 10:00 | 4.60 | 75 | 4520 (1981) | 6 (1986) | 202 | 8 | 9 | 19 | 27 | 59 | 110 | 163 | 272 | 963 |
| 2026-05-10 09:00 | 4.60 | 75 | 4520 (1981) | 6 (1986) | 202 | 8 | 9 | 19 | 27 | 59 | 110 | 163 | 272 | 963 |
| 2026-05-10 08:00 | 4.61 | 77 | 4520 (1981) | 6 (1986) | 202 | 8 | 9 | 19 | 27 | 59 | 110 | 163 | 272 | 963 |
| 2026-05-10 07:00 | 4.62 | 78 | 4520 (1981) | 6 (1986) | 202 | 8 | 9 | 19 | 27 | 59 | 110 | 163 | 272 | 963 |
| 2026-05-10 06:00 | 4.64 | 81 | 4520 (1981) | 6 (1986) | 202 | 8 | 9 | 19 | 27 | 59 | 110 | 163 | 272 | 963 |
| 2026-05-10 05:00 | 4.65 | 83 | 4520 (1981) | 6 (1986) | 202 | 8 | 9 | 19 | 27 | 59 | 110 | 163 | 272 | 963 |
| 2026-05-10 04:00 | 4.67 | 86 | 4520 (1981) | 6 (1986) | 202 | 8 | 9 | 19 | 27 | 59 | 110 | 163 | 272 | 963 |
| 2026-05-10 03:00 | 4.68 | 88 | 4520 (1981) | 6 (1986) | 202 | 8 | 9 | 19 | 27 | 59 | 110 | 163 | 272 | 963 |
| 2026-05-10 02:00 | 4.69 | 89 | 4520 (1981) | 6 (1986) | 202 | 8 | 9 | 19 | 27 | 59 | 110 | 163 | 272 | 963 |
| 2026-05-10 01:00 | 4.71 | 93 | 4520 (1981) | 6 (1986) | 202 | 8 | 9 | 19 | 27 | 59 | 110 | 163 | 272 | 963 |
| 2026-05-10 00:00 | 4.72 | 95 | 4520 (1981) | 6 (1986) | 202 | 8 | 9 | 19 | 27 | 59 | 110 | 163 | 272 | 963 |
| 2026-05-09 23:00 | 4.74 | 98 | 4520 (1981) | 6 (1986) | 202 | 8 | 9 | 19 | 27 | 59 | 110 | 163 | 272 | 963 |
| 2026-05-09 22:00 | 4.76 | 102 | 4040 (2002) | 6 (1986) | 200 | 9 | 11 | 17 | 25 | 61 | 139 | 164 | 430 | 870 |
| 2026-05-09 21:00 | 4.77 | 104 | 4040 (2002) | 6 (1986) | 200 | 9 | 11 | 17 | 25 | 61 | 139 | 164 | 430 | 870 |
| 2026-05-09 20:00 | 4.80 | 110 | 4040 (2002) | 6 (1986) | 200 | 9 | 11 | 17 | 25 | 61 | 139 | 164 | 430 | 870 |
| 2026-05-09 19:00 | 4.81 | 112 | 4040 (2002) | 6 (1986) | 200 | 9 | 11 | 17 | 25 | 61 | 139 | 164 | 430 | 870 |
| 2026-05-09 18:00 | 4.83 | 116 | 4040 (2002) | 6 (1986) | 200 | 9 | 11 | 17 | 25 | 61 | 139 | 164 | 430 | 870 |
| 2026-05-09 17:00 | 4.86 | 122 | 4040 (2002) | 6 (1986) | 200 | 9 | 11 | 17 | 25 | 61 | 139 | 164 | 430 | 870 |
| 2026-05-09 16:00 | 4.89 | 129 | 4040 (2002) | 6 (1986) | 200 | 9 | 11 | 17 | 25 | 61 | 139 | 164 | 430 | 870 |
| 2026-05-09 15:00 | 4.92 | 135 | 4040 (2002) | 6 (1986) | 200 | 9 | 11 | 17 | 25 | 61 | 139 | 164 | 430 | 870 |
| 2026-05-09 14:00 | 4.94 | 140 | 4040 (2002) | 6 (1986) | 200 | 9 | 11 | 17 | 25 | 61 | 139 | 164 | 430 | 870 |
| 2026-05-09 13:00 | 4.92 | 135 | 4040 (2002) | 6 (1986) | 200 | 9 | 11 | 17 | 25 | 61 | 139 | 164 | 430 | 870 |
| 2026-05-09 12:00 | 4.84 | 118 | 4040 (2002) | 6 (1986) | 200 | 9 | 11 | 17 | 25 | 61 | 139 | 164 | 430 | 870 |
| 2026-05-09 11:00 | 4.73 | 97 | 4040 (2002) | 6 (1986) | 200 | 9 | 11 | 17 | 25 | 61 | 139 | 164 | 430 | 870 |
| 2026-05-09 10:00 | 4.70 | 91 | 4040 (2002) | 6 (1986) | 200 | 9 | 11 | 17 | 25 | 61 | 139 | 164 | 430 | 870 |
| 2026-05-09 09:00 | 4.66 | 84 | 4040 (2002) | 6 (1986) | 200 | 9 | 11 | 17 | 25 | 61 | 139 | 164 | 430 | 870 |
| 2026-05-09 08:00 | 4.62 | 78 | 4040 (2002) | 6 (1986) | 200 | 9 | 11 | 17 | 25 | 61 | 139 | 164 | 430 | 870 |
| 2026-05-09 07:00 | 4.60 | 75 | 4040 (2002) | 6 (1986) | 200 | 9 | 11 | 17 | 25 | 61 | 139 | 164 | 430 | 870 |
| 2026-05-09 06:00 | 4.58 | 72 | 4040 (2002) | 6 (1986) | 200 | 9 | 11 | 17 | 25 | 61 | 139 | 164 | 430 | 870 |
| 2026-05-09 05:00 | 4.53 | 65 | 4040 (2002) | 6 (1986) | 200 | 9 | 11 | 17 | 25 | 61 | 139 | 164 | 430 | 870 |
| 2026-05-09 04:00 | 4.47 | 58 | 4040 (2002) | 6 (1986) | 200 | 9 | 11 | 17 | 25 | 61 | 139 | 164 | 430 | 870 |
| 2026-05-09 03:00 | 4.41 | 52 | 4040 (2002) | 6 (1986) | 200 | 9 | 11 | 17 | 25 | 61 | 139 | 164 | 430 | 870 |
| 2026-05-09 02:00 | 4.36 | 46 | 4040 (2002) | 6 (1986) | 200 | 9 | 11 | 17 | 25 | 61 | 139 | 164 | 430 | 870 |
| 2026-05-09 01:00 | 4.33 | 44 | 4040 (2002) | 6 (1986) | 200 | 9 | 11 | 17 | 25 | 61 | 139 | 164 | 430 | 870 |
| 2026-05-09 00:00 | 4.30 | 41 | 4040 (2002) | 6 (1986) | 200 | 9 | 11 | 17 | 25 | 61 | 139 | 164 | 430 | 870 |
| 2026-05-08 23:00 | 4.28 | 39 | 4040 (2002) | 6 (1986) | 200 | 9 | 11 | 17 | 25 | 61 | 139 | 164 | 430 | 870 |
| 2026-05-08 22:00 | 4.24 | 36 | 7060 (2009) | 6 (1986) | 396 | 9 | 11 | 19 | 23 | 52 | 191 | 277 | 887 | 2770 |
| 2026-05-08 21:00 | 4.20 | 32 | 7060 (2009) | 6 (1986) | 396 | 9 | 11 | 19 | 23 | 52 | 191 | 277 | 887 | 2770 |
| 2026-05-08 20:00 | 4.20 | 32 | 7060 (2009) | 6 (1986) | 396 | 9 | 11 | 19 | 23 | 52 | 191 | 277 | 887 | 2770 |
| 2026-05-08 19:00 | 4.19 | 32 | 7060 (2009) | 6 (1986) | 396 | 9 | 11 | 19 | 23 | 52 | 191 | 277 | 887 | 2770 |
| 2026-05-08 18:00 | 4.19 | 32 | 7060 (2009) | 6 (1986) | 396 | 9 | 11 | 19 | 23 | 52 | 191 | 277 | 887 | 2770 |
| 2026-05-08 17:00 | 4.19 | 32 | 7060 (2009) | 6 (1986) | 396 | 9 | 11 | 19 | 23 | 52 | 191 | 277 | 887 | 2770 |
| 2026-05-08 16:00 | 4.20 | 32 | 7060 (2009) | 6 (1986) | 396 | 9 | 11 | 19 | 23 | 52 | 191 | 277 | 887 | 2770 |
| 2026-05-08 15:00 | 4.20 | 32 | 7060 (2009) | 6 (1986) | 396 | 9 | 11 | 19 | 23 | 52 | 191 | 277 | 887 | 2770 |
| 2026-05-08 14:00 | 4.20 | 32 | 7060 (2009) | 6 (1986) | 396 | 9 | 11 | 19 | 23 | 52 | 191 | 277 | 887 | 2770 |
| 2026-05-08 13:00 | 4.21 | 33 | 7060 (2009) | 6 (1986) | 396 | 9 | 11 | 19 | 23 | 52 | 191 | 277 | 887 | 2770 |
| 2026-05-08 12:00 | 4.21 | 33 | 7060 (2009) | 6 (1986) | 396 | 9 | 11 | 19 | 23 | 52 | 191 | 277 | 887 | 2770 |
| 2026-05-08 11:00 | 4.21 | 33 | 7060 (2009) | 6 (1986) | 396 | 9 | 11 | 19 | 23 | 52 | 191 | 277 | 887 | 2770 |
| 2026-05-08 10:00 | 4.21 | 33 | 7060 (2009) | 6 (1986) | 396 | 9 | 11 | 19 | 23 | 52 | 191 | 277 | 887 | 2770 |
| 2026-05-08 09:00 | 4.22 | 34 | 7060 (2009) | 6 (1986) | 396 | 9 | 11 | 19 | 23 | 52 | 191 | 277 | 887 | 2770 |
| 2026-05-08 08:00 | 4.22 | 34 | 7060 (2009) | 6 (1986) | 396 | 9 | 11 | 19 | 23 | 52 | 191 | 277 | 887 | 2770 |
| 2026-05-08 07:00 | 4.23 | 35 | 7060 (2009) | 6 (1986) | 396 | 9 | 11 | 19 | 23 | 52 | 191 | 277 | 887 | 2770 |
| 2026-05-08 06:00 | 4.23 | 35 | 7060 (2009) | 6 (1986) | 396 | 9 | 11 | 19 | 23 | 52 | 191 | 277 | 887 | 2770 |
| 2026-05-08 05:00 | 4.23 | 35 | 7060 (2009) | 6 (1986) | 396 | 9 | 11 | 19 | 23 | 52 | 191 | 277 | 887 | 2770 |
| 2026-05-08 04:00 | 4.24 | 36 | 7060 (2009) | 6 (1986) | 396 | 9 | 11 | 19 | 23 | 52 | 191 | 277 | 887 | 2770 |
| 2026-05-08 03:00 | 4.24 | 36 | 7060 (2009) | 6 (1986) | 396 | 9 | 11 | 19 | 23 | 52 | 191 | 277 | 887 | 2770 |
| 2026-05-08 02:00 | 4.25 | 36 | 7060 (2009) | 6 (1986) | 396 | 9 | 11 | 19 | 23 | 52 | 191 | 277 | 887 | 2770 |
| 2026-05-08 01:00 | 4.25 | 36 | 7060 (2009) | 6 (1986) | 396 | 9 | 11 | 19 | 23 | 52 | 191 | 277 | 887 | 2770 |
| 2026-05-08 00:00 | 4.25 | 36 | 7060 (2009) | 6 (1986) | 396 | 9 | 11 | 19 | 23 | 52 | 191 | 277 | 887 | 2770 |
| 2026-05-07 23:00 | 4.27 | 38 | 7060 (2009) | 6 (1986) | 396 | 9 | 11 | 19 | 23 | 52 | 191 | 277 | 887 | 2770 |
| 2026-05-07 22:00 | 4.27 | 38 | 4840 (1973) | 6 (1986) | 289 | 8 | 12 | 19 | 23 | 55 | 176 | 335 | 552 | 1650 |
| 2026-05-07 21:00 | 4.28 | 39 | 4840 (1973) | 6 (1986) | 289 | 8 | 12 | 19 | 23 | 55 | 176 | 335 | 552 | 1650 |
| 2026-05-07 20:00 | 4.28 | 39 | 4840 (1973) | 6 (1986) | 289 | 8 | 12 | 19 | 23 | 55 | 176 | 335 | 552 | 1650 |
| 2026-05-07 19:00 | 4.29 | 40 | 4840 (1973) | 6 (1986) | 289 | 8 | 12 | 19 | 23 | 55 | 176 | 335 | 552 | 1650 |
| 2026-05-07 18:00 | 4.29 | 40 | 4840 (1973) | 6 (1986) | 289 | 8 | 12 | 19 | 23 | 55 | 176 | 335 | 552 | 1650 |
| 2026-05-07 17:00 | 4.30 | 41 | 4840 (1973) | 6 (1986) | 289 | 8 | 12 | 19 | 23 | 55 | 176 | 335 | 552 | 1650 |
| 2026-05-07 16:00 | 4.30 | 41 | 4840 (1973) | 6 (1986) | 289 | 8 | 12 | 19 | 23 | 55 | 176 | 335 | 552 | 1650 |
| 2026-05-07 15:00 | 4.31 | 42 | 4840 (1973) | 6 (1986) | 289 | 8 | 12 | 19 | 23 | 55 | 176 | 335 | 552 | 1650 |
| 2026-05-07 14:00 | 4.32 | 43 | 4840 (1973) | 6 (1986) | 289 | 8 | 12 | 19 | 23 | 55 | 176 | 335 | 552 | 1650 |
| 2026-05-07 13:00 | 4.32 | 43 | 4840 (1973) | 6 (1986) | 289 | 8 | 12 | 19 | 23 | 55 | 176 | 335 | 552 | 1650 |
| 2026-05-07 12:00 | 4.33 | 44 | 4840 (1973) | 6 (1986) | 289 | 8 | 12 | 19 | 23 | 55 | 176 | 335 | 552 | 1650 |
| 2026-05-07 11:00 | 4.34 | 44 | 4840 (1973) | 6 (1986) | 289 | 8 | 12 | 19 | 23 | 55 | 176 | 335 | 552 | 1650 |
| 2026-05-07 10:00 | 4.34 | 44 | 4840 (1973) | 6 (1986) | 289 | 8 | 12 | 19 | 23 | 55 | 176 | 335 | 552 | 1650 |
| 2026-05-07 09:00 | 4.35 | 45 | 4840 (1973) | 6 (1986) | 289 | 8 | 12 | 19 | 23 | 55 | 176 | 335 | 552 | 1650 |
| 2026-05-07 08:00 | 4.35 | 45 | 4840 (1973) | 6 (1986) | 289 | 8 | 12 | 19 | 23 | 55 | 176 | 335 | 552 | 1650 |
| 2026-05-07 07:00 | 4.36 | 46 | 4840 (1973) | 6 (1986) | 289 | 8 | 12 | 19 | 23 | 55 | 176 | 335 | 552 | 1650 |
| 2026-05-07 06:00 | 4.37 | 47 | 4840 (1973) | 6 (1986) | 289 | 8 | 12 | 19 | 23 | 55 | 176 | 335 | 552 | 1650 |
| 2026-05-07 05:00 | 4.38 | 48 | 4840 (1973) | 6 (1986) | 289 | 8 | 12 | 19 | 23 | 55 | 176 | 335 | 552 | 1650 |
| 2026-05-07 04:00 | 4.39 | 49 | 4840 (1973) | 6 (1986) | 289 | 8 | 12 | 19 | 23 | 55 | 176 | 335 | 552 | 1650 |
| 2026-05-07 03:00 | 4.40 | 50 | 4840 (1973) | 6 (1986) | 289 | 8 | 12 | 19 | 23 | 55 | 176 | 335 | 552 | 1650 |
| 2026-05-07 02:00 | 4.41 | 52 | 4840 (1973) | 6 (1986) | 289 | 8 | 12 | 19 | 23 | 55 | 176 | 335 | 552 | 1650 |
| 2026-05-07 01:00 | 4.42 | 53 | 4840 (1973) | 6 (1986) | 289 | 8 | 12 | 19 | 23 | 55 | 176 | 335 | 552 | 1650 |
| 2026-05-07 00:00 | 4.42 | 53 | 4840 (1973) | 6 (1986) | 289 | 8 | 12 | 19 | 23 | 55 | 176 | 335 | 552 | 1650 |
| 2026-05-06 23:00 | 4.43 | 54 | 4840 (1973) | 6 (1986) | 289 | 8 | 12 | 19 | 23 | 55 | 176 | 335 | 552 | 1650 |
| 2026-05-06 22:00 | 4.43 | 54 | 3190 (1975) | 4 (1977) | 185 | 8 | 9 | 17 | 25 | 56 | 123 | 146 | 392 | 668 |
| 2026-05-06 21:00 | 4.43 | 54 | 3190 (1975) | 4 (1977) | 185 | 8 | 9 | 17 | 25 | 56 | 123 | 146 | 392 | 668 |
| 2026-05-06 20:00 | 4.42 | 53 | 3190 (1975) | 4 (1977) | 185 | 8 | 9 | 17 | 25 | 56 | 123 | 146 | 392 | 668 |
| 2026-05-06 19:00 | 4.40 | 50 | 3190 (1975) | 4 (1977) | 185 | 8 | 9 | 17 | 25 | 56 | 123 | 146 | 392 | 668 |
| 2026-05-06 18:00 | 4.40 | 50 | 3190 (1975) | 4 (1977) | 185 | 8 | 9 | 17 | 25 | 56 | 123 | 146 | 392 | 668 |
| 2026-05-06 17:00 | 4.39 | 49 | 3190 (1975) | 4 (1977) | 185 | 8 | 9 | 17 | 25 | 56 | 123 | 146 | 392 | 668 |
| 2026-05-06 16:00 | 4.40 | 50 | 3190 (1975) | 4 (1977) | 185 | 8 | 9 | 17 | 25 | 56 | 123 | 146 | 392 | 668 |
| 2026-05-06 15:00 | 4.40 | 50 | 3190 (1975) | 4 (1977) | 185 | 8 | 9 | 17 | 25 | 56 | 123 | 146 | 392 | 668 |
| 2026-05-06 14:00 | 4.40 | 50 | 3190 (1975) | 4 (1977) | 185 | 8 | 9 | 17 | 25 | 56 | 123 | 146 | 392 | 668 |
| 2026-05-06 13:00 | 4.41 | 52 | 3190 (1975) | 4 (1977) | 185 | 8 | 9 | 17 | 25 | 56 | 123 | 146 | 392 | 668 |
| 2026-05-06 12:00 | 4.40 | 50 | 3190 (1975) | 4 (1977) | 185 | 8 | 9 | 17 | 25 | 56 | 123 | 146 | 392 | 668 |
| 2026-05-06 11:00 | 4.40 | 50 | 3190 (1975) | 4 (1977) | 185 | 8 | 9 | 17 | 25 | 56 | 123 | 146 | 392 | 668 |
| 2026-05-06 10:00 | 4.40 | 50 | 3190 (1975) | 4 (1977) | 185 | 8 | 9 | 17 | 25 | 56 | 123 | 146 | 392 | 668 |
| 2026-05-06 09:00 | 4.40 | 50 | 3190 (1975) | 4 (1977) | 185 | 8 | 9 | 17 | 25 | 56 | 123 | 146 | 392 | 668 |
| 2026-05-06 08:00 | 4.40 | 50 | 3190 (1975) | 4 (1977) | 185 | 8 | 9 | 17 | 25 | 56 | 123 | 146 | 392 | 668 |
| 2026-05-06 07:00 | 4.39 | 49 | 3190 (1975) | 4 (1977) | 185 | 8 | 9 | 17 | 25 | 56 | 123 | 146 | 392 | 668 |
| 2026-05-06 06:00 | 4.40 | 50 | 3190 (1975) | 4 (1977) | 185 | 8 | 9 | 17 | 25 | 56 | 123 | 146 | 392 | 668 |
| 2026-05-06 05:00 | 4.39 | 49 | 3190 (1975) | 4 (1977) | 185 | 8 | 9 | 17 | 25 | 56 | 123 | 146 | 392 | 668 |
| 2026-05-06 04:00 | 4.40 | 50 | 3190 (1975) | 4 (1977) | 185 | 8 | 9 | 17 | 25 | 56 | 123 | 146 | 392 | 668 |
| 2026-05-06 03:00 | 4.39 | 49 | 3190 (1975) | 4 (1977) | 185 | 8 | 9 | 17 | 25 | 56 | 123 | 146 | 392 | 668 |
| 2026-05-06 02:00 | 4.39 | 49 | 3190 (1975) | 4 (1977) | 185 | 8 | 9 | 17 | 25 | 56 | 123 | 146 | 392 | 668 |
| 2026-05-06 01:00 | 4.39 | 49 | 3190 (1975) | 4 (1977) | 185 | 8 | 9 | 17 | 25 | 56 | 123 | 146 | 392 | 668 |
| 2026-05-06 00:00 | 4.38 | 48 | 3190 (1975) | 4 (1977) | 185 | 8 | 9 | 17 | 25 | 56 | 123 | 146 | 392 | 668 |
| 2026-05-05 23:00 | 4.38 | 48 | 3190 (1975) | 4 (1977) | 185 | 8 | 9 | 17 | 25 | 56 | 123 | 146 | 392 | 668 |
| 2026-05-05 22:00 | 4.38 | 48 | 9130 (2022) | 4 (1977) | 334 | 7 | 12 | 19 | 27 | 55 | 161 | 188 | 337 | 1670 |
| 2026-05-05 21:00 | 4.37 | 47 | 9130 (2022) | 4 (1977) | 334 | 7 | 12 | 19 | 27 | 55 | 161 | 188 | 337 | 1670 |
| 2026-05-05 20:00 | 4.37 | 47 | 9130 (2022) | 4 (1977) | 334 | 7 | 12 | 19 | 27 | 55 | 161 | 188 | 337 | 1670 |
| 2026-05-05 19:00 | 4.36 | 46 | 9130 (2022) | 4 (1977) | 334 | 7 | 12 | 19 | 27 | 55 | 161 | 188 | 337 | 1670 |
| 2026-05-05 18:00 | 4.35 | 45 | 9130 (2022) | 4 (1977) | 334 | 7 | 12 | 19 | 27 | 55 | 161 | 188 | 337 | 1670 |
| 2026-05-05 17:00 | 4.36 | 46 | 9130 (2022) | 4 (1977) | 334 | 7 | 12 | 19 | 27 | 55 | 161 | 188 | 337 | 1670 |
| 2026-05-05 16:00 | 4.35 | 45 | 9130 (2022) | 4 (1977) | 334 | 7 | 12 | 19 | 27 | 55 | 161 | 188 | 337 | 1670 |
| 2026-05-05 15:00 | 4.36 | 46 | 9130 (2022) | 4 (1977) | 334 | 7 | 12 | 19 | 27 | 55 | 161 | 188 | 337 | 1670 |
| 2026-05-05 14:00 | 4.35 | 45 | 9130 (2022) | 4 (1977) | 334 | 7 | 12 | 19 | 27 | 55 | 161 | 188 | 337 | 1670 |
| 2026-05-05 13:00 | 4.36 | 46 | 9130 (2022) | 4 (1977) | 334 | 7 | 12 | 19 | 27 | 55 | 161 | 188 | 337 | 1670 |
| 2026-05-05 12:00 | 4.37 | 47 | 9130 (2022) | 4 (1977) | 334 | 7 | 12 | 19 | 27 | 55 | 161 | 188 | 337 | 1670 |
| 2026-05-05 11:00 | 4.35 | 45 | 9130 (2022) | 4 (1977) | 334 | 7 | 12 | 19 | 27 | 55 | 161 | 188 | 337 | 1670 |
| 2026-05-05 10:00 | 4.36 | 46 | 9130 (2022) | 4 (1977) | 334 | 7 | 12 | 19 | 27 | 55 | 161 | 188 | 337 | 1670 |
| 2026-05-05 09:00 | 4.37 | 47 | 9130 (2022) | 4 (1977) | 334 | 7 | 12 | 19 | 27 | 55 | 161 | 188 | 337 | 1670 |
| 2026-05-05 08:00 | 4.37 | 47 | 9130 (2022) | 4 (1977) | 334 | 7 | 12 | 19 | 27 | 55 | 161 | 188 | 337 | 1670 |
| 2026-05-05 07:00 | 4.37 | 47 | 9130 (2022) | 4 (1977) | 334 | 7 | 12 | 19 | 27 | 55 | 161 | 188 | 337 | 1670 |
| 2026-05-05 06:00 | 4.36 | 46 | 9130 (2022) | 4 (1977) | 334 | 7 | 12 | 19 | 27 | 55 | 161 | 188 | 337 | 1670 |
| 2026-05-05 05:00 | 4.36 | 46 | 9130 (2022) | 4 (1977) | 334 | 7 | 12 | 19 | 27 | 55 | 161 | 188 | 337 | 1670 |
| 2026-05-05 04:00 | 4.35 | 45 | 9130 (2022) | 4 (1977) | 334 | 7 | 12 | 19 | 27 | 55 | 161 | 188 | 337 | 1670 |
| 2026-05-05 03:00 | 4.36 | 46 | 9130 (2022) | 4 (1977) | 334 | 7 | 12 | 19 | 27 | 55 | 161 | 188 | 337 | 1670 |
| 2026-05-05 02:00 | 4.36 | 46 | 9130 (2022) | 4 (1977) | 334 | 7 | 12 | 19 | 27 | 55 | 161 | 188 | 337 | 1670 |
| 2026-05-05 01:00 | 4.36 | 46 | 9130 (2022) | 4 (1977) | 334 | 7 | 12 | 19 | 27 | 55 | 161 | 188 | 337 | 1670 |
| 2026-05-05 00:00 | 4.37 | 47 | 9130 (2022) | 4 (1977) | 334 | 7 | 12 | 19 | 27 | 55 | 161 | 188 | 337 | 1670 |
| 2026-05-04 23:00 | 4.37 | 47 | 9130 (2022) | 4 (1977) | 334 | 7 | 12 | 19 | 27 | 55 | 161 | 188 | 337 | 1670 |
| 2026-05-04 22:00 | 4.38 | 48 | 6270 (2017) | 4 (1977) | 270 | 8 | 12 | 19 | 29 | 68 | 175 | 323 | 589 | 1170 |
| 2026-05-04 21:00 | 4.39 | 49 | 6270 (2017) | 4 (1977) | 270 | 8 | 12 | 19 | 29 | 68 | 175 | 323 | 589 | 1170 |
| 2026-05-04 20:00 | 4.39 | 49 | 6270 (2017) | 4 (1977) | 270 | 8 | 12 | 19 | 29 | 68 | 175 | 323 | 589 | 1170 |
| 2026-05-04 19:00 | 4.40 | 50 | 6270 (2017) | 4 (1977) | 270 | 8 | 12 | 19 | 29 | 68 | 175 | 323 | 589 | 1170 |
| 2026-05-04 18:00 | 4.40 | 50 | 6270 (2017) | 4 (1977) | 270 | 8 | 12 | 19 | 29 | 68 | 175 | 323 | 589 | 1170 |
| 2026-05-04 17:00 | 4.41 | 52 | 6270 (2017) | 4 (1977) | 270 | 8 | 12 | 19 | 29 | 68 | 175 | 323 | 589 | 1170 |
| 2026-05-04 16:00 | 4.42 | 53 | 6270 (2017) | 4 (1977) | 270 | 8 | 12 | 19 | 29 | 68 | 175 | 323 | 589 | 1170 |
| 2026-05-04 15:00 | 4.42 | 53 | 6270 (2017) | 4 (1977) | 270 | 8 | 12 | 19 | 29 | 68 | 175 | 323 | 589 | 1170 |
| 2026-05-04 14:00 | 4.42 | 53 | 6270 (2017) | 4 (1977) | 270 | 8 | 12 | 19 | 29 | 68 | 175 | 323 | 589 | 1170 |
| 2026-05-04 13:00 | 4.42 | 53 | 6270 (2017) | 4 (1977) | 270 | 8 | 12 | 19 | 29 | 68 | 175 | 323 | 589 | 1170 |
| 2026-05-04 12:00 | 4.44 | 55 | 6270 (2017) | 4 (1977) | 270 | 8 | 12 | 19 | 29 | 68 | 175 | 323 | 589 | 1170 |
| 2026-05-04 11:00 | 4.44 | 55 | 6270 (2017) | 4 (1977) | 270 | 8 | 12 | 19 | 29 | 68 | 175 | 323 | 589 | 1170 |
| 2026-05-04 10:00 | 4.45 | 56 | 6270 (2017) | 4 (1977) | 270 | 8 | 12 | 19 | 29 | 68 | 175 | 323 | 589 | 1170 |
| 2026-05-04 09:00 | 4.45 | 56 | 6270 (2017) | 4 (1977) | 270 | 8 | 12 | 19 | 29 | 68 | 175 | 323 | 589 | 1170 |
| 2026-05-04 08:00 | 4.45 | 56 | 6270 (2017) | 4 (1977) | 270 | 8 | 12 | 19 | 29 | 68 | 175 | 323 | 589 | 1170 |
| 2026-05-04 07:00 | 4.45 | 56 | 6270 (2017) | 4 (1977) | 270 | 8 | 12 | 19 | 29 | 68 | 175 | 323 | 589 | 1170 |
| 2026-05-04 06:00 | 4.45 | 56 | 6270 (2017) | 4 (1977) | 270 | 8 | 12 | 19 | 29 | 68 | 175 | 323 | 589 | 1170 |
| 2026-05-04 05:00 | 4.46 | 57 | 6270 (2017) | 4 (1977) | 270 | 8 | 12 | 19 | 29 | 68 | 175 | 323 | 589 | 1170 |
| 2026-05-04 04:00 | 4.47 | 58 | 6270 (2017) | 4 (1977) | 270 | 8 | 12 | 19 | 29 | 68 | 175 | 323 | 589 | 1170 |
| 2026-05-04 03:00 | 4.47 | 58 | 6270 (2017) | 4 (1977) | 270 | 8 | 12 | 19 | 29 | 68 | 175 | 323 | 589 | 1170 |
| 2026-05-04 02:00 | 4.48 | 59 | 6270 (2017) | 4 (1977) | 270 | 8 | 12 | 19 | 29 | 68 | 175 | 323 | 589 | 1170 |
| 2026-05-04 01:00 | 4.48 | 59 | 6270 (2017) | 4 (1977) | 270 | 8 | 12 | 19 | 29 | 68 | 175 | 323 | 589 | 1170 |
| 2026-05-04 00:00 | 4.49 | 60 | 6270 (2017) | 4 (1977) | 270 | 8 | 12 | 19 | 29 | 68 | 175 | 323 | 589 | 1170 |
| 2026-05-03 23:00 | 4.49 | 60 | 6270 (2017) | 4 (1977) | 270 | 8 | 12 | 19 | 29 | 68 | 175 | 323 | 589 | 1170 |
| 2026-05-03 22:00 | 4.49 | 60 | 3690 (1990) | 4 (1977) | 280 | 8 | 10 | 21 | 27 | 74 | 191 | 326 | 539 | 1480 |
| 2026-05-03 21:00 | 4.51 | 63 | 3690 (1990) | 4 (1977) | 280 | 8 | 10 | 21 | 27 | 74 | 191 | 326 | 539 | 1480 |
| 2026-05-03 20:00 | 4.51 | 63 | 3690 (1990) | 4 (1977) | 280 | 8 | 10 | 21 | 27 | 74 | 191 | 326 | 539 | 1480 |
| 2026-05-03 19:00 | 4.51 | 63 | 3690 (1990) | 4 (1977) | 280 | 8 | 10 | 21 | 27 | 74 | 191 | 326 | 539 | 1480 |
| 2026-05-03 18:00 | 4.52 | 64 | 3690 (1990) | 4 (1977) | 280 | 8 | 10 | 21 | 27 | 74 | 191 | 326 | 539 | 1480 |
| 2026-05-03 17:00 | 4.52 | 64 | 3690 (1990) | 4 (1977) | 280 | 8 | 10 | 21 | 27 | 74 | 191 | 326 | 539 | 1480 |
| 2026-05-03 16:00 | 4.53 | 65 | 3690 (1990) | 4 (1977) | 280 | 8 | 10 | 21 | 27 | 74 | 191 | 326 | 539 | 1480 |
| 2026-05-03 15:00 | 4.54 | 67 | 3690 (1990) | 4 (1977) | 280 | 8 | 10 | 21 | 27 | 74 | 191 | 326 | 539 | 1480 |
| 2026-05-03 14:00 | 4.54 | 67 | 3690 (1990) | 4 (1977) | 280 | 8 | 10 | 21 | 27 | 74 | 191 | 326 | 539 | 1480 |
| 2026-05-03 13:00 | 4.55 | 68 | 3690 (1990) | 4 (1977) | 280 | 8 | 10 | 21 | 27 | 74 | 191 | 326 | 539 | 1480 |
| 2026-05-03 12:00 | 4.56 | 69 | 3690 (1990) | 4 (1977) | 280 | 8 | 10 | 21 | 27 | 74 | 191 | 326 | 539 | 1480 |
| 2026-05-03 11:00 | 4.56 | 69 | 3690 (1990) | 4 (1977) | 280 | 8 | 10 | 21 | 27 | 74 | 191 | 326 | 539 | 1480 |
| 2026-05-03 10:00 | 4.57 | 71 | 3690 (1990) | 4 (1977) | 280 | 8 | 10 | 21 | 27 | 74 | 191 | 326 | 539 | 1480 |
| 2026-05-03 09:00 | 4.57 | 71 | 3690 (1990) | 4 (1977) | 280 | 8 | 10 | 21 | 27 | 74 | 191 | 326 | 539 | 1480 |
| 2026-05-03 08:00 | 4.57 | 71 | 3690 (1990) | 4 (1977) | 280 | 8 | 10 | 21 | 27 | 74 | 191 | 326 | 539 | 1480 |
| 2026-05-03 07:00 | 4.57 | 71 | 3690 (1990) | 4 (1977) | 280 | 8 | 10 | 21 | 27 | 74 | 191 | 326 | 539 | 1480 |
| 2026-05-03 06:00 | 4.57 | 71 | 3690 (1990) | 4 (1977) | 280 | 8 | 10 | 21 | 27 | 74 | 191 | 326 | 539 | 1480 |
| 2026-05-03 05:00 | 4.58 | 72 | 3690 (1990) | 4 (1977) | 280 | 8 | 10 | 21 | 27 | 74 | 191 | 326 | 539 | 1480 |
| 2026-05-03 04:00 | 4.58 | 72 | 3690 (1990) | 4 (1977) | 280 | 8 | 10 | 21 | 27 | 74 | 191 | 326 | 539 | 1480 |
| 2026-05-03 03:00 | 4.58 | 72 | 3690 (1990) | 4 (1977) | 280 | 8 | 10 | 21 | 27 | 74 | 191 | 326 | 539 | 1480 |
| 2026-05-03 02:00 | 4.59 | 74 | 3690 (1990) | 4 (1977) | 280 | 8 | 10 | 21 | 27 | 74 | 191 | 326 | 539 | 1480 |
| 2026-05-03 01:00 | 4.60 | 75 | 3690 (1990) | 4 (1977) | 280 | 8 | 10 | 21 | 27 | 74 | 191 | 326 | 539 | 1480 |
| 2026-05-03 00:00 | 4.60 | 75 | 3690 (1990) | 4 (1977) | 280 | 8 | 10 | 21 | 27 | 74 | 191 | 326 | 539 | 1480 |
| 2026-05-02 23:00 | 4.60 | 75 | 3690 (1990) | 4 (1977) | 280 | 8 | 10 | 21 | 27 | 74 | 191 | 326 | 539 | 1480 |
A total of 187 rows are displayed for years 1966 through 2025.